FW4486 Weather Reports


time (UTC)temp
C
wind
direction
speed
KPH
gust
KPH
rain 1hr
cm
rain 24hr
cm
rain mn
cm
humidity
%
barometer
mb
20260505124545 17 0.0 4.8 0.00 0.00 0.00 82 1020.1
20260505124043 17 0.0 4.8 0.00 0.00 0.00 83 1020.0
20260505123542 17 0.0 1.6 0.00 0.00 0.00 82 1020.0
20260505123103 16 0.0 3.2 0.00 0.00 0.00 85 1020.1
20260505122538 16 0.0 4.8 0.00 0.00 0.00 85 1020.0
20260505122036 16 0.0 4.8 0.00 0.00 0.00 86 1019.9
20260505121536 15 0.0 3.2 0.00 0.00 0.00 87 1019.9
20260505121038 15 0.0 0.0 0.00 0.00 0.00 88 1019.9
20260505120533 14 0.0 1.6 0.00 0.00 0.00 89 1019.9
20260505120046 13 0.0 1.6 0.00 0.00 0.00 90 1019.9
20260505115530 13 0.0 0.0 0.00 0.00 0.00 92 1019.9
20260505115030 12 0.0 0.0 0.00 0.00 0.00 93 1019.8
20260505114536 12 0.0 0.0 0.00 0.00 0.00 94 1019.8
20260505114026 12 0.0 0.0 0.00 0.00 0.00 93 1019.6
20260505113525 11 0.0 1.6 0.00 0.00 0.00 93 1019.5
20260505113024 11 0.0 1.6 0.00 0.00 0.00 94 1019.4
20260505112524 11 0.0 0.0 0.00 0.00 0.00 94 1019.3
20260505112023 11 0.0 0.0 0.00 0.00 0.00 94 1019.4
20260505111522 11 0.0 0.0 0.00 0.00 0.00 93 1019.4
20260505111021 11 0.0 0.0 0.00 0.00 0.00 94 1019.4
20260505110522 11 0.0 0.0 0.00 0.00 0.00 94 1019.3
20260505102014 11 0.0 0.0 0.00 0.00 0.00 94 1018.8
20260505101513 11 0.0 0.0 0.00 0.00 0.00 94 1018.9
20260505101012 11 0.0 0.0 0.00 0.00 0.00 93 1018.9
20260505100512 11 0.0 0.0 0.00 0.00 0.00 93 1019.0
20260505100011 11 0.0 0.0 0.00 0.00 0.00 92 1019.0
20260505095510 11 0.0 0.0 0.00 0.00 0.00 92 1019.1
20260505095012 11 0.0 0.0 0.00 0.00 0.00 92 1019.1
20260505094508 11 0.0 0.0 0.00 0.00 0.00 92 1019.1
20260505094006 11 0.0 0.0 0.00 0.00 0.00 92 1019.1
20260505093508 11 0.0 0.0 0.00 0.00 0.00 92 1019.3
20260505093005 11 0.0 0.0 0.00 0.00 0.00 92 1019.2
20260505092505 11 0.0 0.0 0.00 0.00 0.00 92 1019.2
20260505092006 11 0.0 0.0 0.00 0.00 0.00 91 1019.1
20260505091502 12 0.0 0.0 0.00 0.00 0.00 91 1019.0
20260505091003 12 0.0 0.0 0.00 0.00 0.00 91 1018.9
20260505090502 12 0.0 0.0 0.00 0.00 0.00 91 1018.8
20260505090111 12 0.0 0.0 0.00 0.00 0.00 91 1018.9
20260505085605 12 0.0 0.0 0.00 0.00 0.00 91 1018.9
20260505085058 12 0.0 0.0 0.00 0.00 0.00 91 1018.8
20260505084559 12 0.0 0.0 0.00 0.00 0.00 91 1018.8
20260505084058 12 0.0 0.0 0.00 0.00 0.00 91 1018.7
20260505083555 12 0.0 0.0 0.00 0.00 0.00 90 1018.6
20260505083107 12 0.0 0.0 0.00 0.00 0.00 90 1018.7
20260505082554 12 0.0 0.0 0.00 0.00 0.00 89 1018.6
20260505082053 12 0.0 0.0 0.00 0.00 0.00 89 1018.7
20260505081553 12 0.0 0.0 0.00 0.00 0.00 90 1018.7
20260505081052 12 0.0 0.0 0.00 0.00 0.00 89 1018.7
20260505080549 12 0.0 0.0 0.00 0.00 0.00 89 1018.7
20260505080054 12 0.0 0.0 0.00 0.00 0.00 88 1018.7
20260505075547 12 0.0 0.0 0.00 0.00 0.00 88 1018.6
20260505075047 12 0.0 0.0 0.00 0.00 0.00 88 1018.7
20260505074546 12 0.0 0.0 0.00 0.00 0.00 88 1018.7
20260505074049 12 0.0 0.0 0.00 0.00 0.00 88 1018.6
20260505073546 12 0.0 0.0 0.00 0.00 0.00 87 1018.6
20260505073054 12 0.0 0.0 0.00 0.00 0.00 88 1018.7
20260505072545 12 0.0 0.0 0.00 0.00 0.00 87 1018.8
20260505072040 12 0.0 0.0 0.00 0.00 0.00 87 1018.7
20260505071540 13 0.0 0.0 0.00 0.00 0.00 87 1018.8
20260505071038 13 0.0 0.0 0.00 0.00 0.00 86 1018.8
20260505070537 13 0.0 0.0 0.00 0.00 0.00 86 1018.6
20260505070040 13 0.0 0.0 0.00 0.00 0.00 85 1018.7
20260505065535 13 0.0 0.0 0.00 0.00 0.00 84 1018.8
20260505065034 13 0.0 0.0 0.00 0.00 0.00 84 1018.8
20260505064532 13 0.0 1.6 0.00 0.00 0.00 84 1018.8
20260505064030 13 0.0 1.6 0.00 0.00 0.00 84 1018.7
20260505063529 13 0.0 0.0 0.00 0.00 0.00 83 1018.9
20260505063028 13 0.0 0.0 0.00 0.00 0.00 83 1018.9
20260505062526 14 0.0 0.0 0.00 0.00 0.00 83 1018.9
20260505062127 14 0.0 0.0 0.00 0.00 0.00 82 1018.9
20260505061524 14 0.0 0.0 0.00 0.00 0.00 81 1019.0
20260505061022 14 0.0 0.0 0.00 0.00 0.00 80 1018.9
20260505060520 15 0.0 0.0 0.00 0.00 0.00 79 1019.1
20260505060024 15 0.0 1.6 0.00 0.00 0.00 79 1019.1
20260505055522 15 0.0 1.6 0.00 0.00 0.00 78 1019.1
20260505055018 15 0.0 3.2 0.00 0.00 0.00 78 1019.1
20260505054521 15 0.0 4.8 0.00 0.00 0.00 78 1019.1
20260505054017 15 0.0 4.8 0.00 0.00 0.00 78 1019.1
20260505053515 15 0.0 3.2 0.00 0.00 0.00 77 1019.1
20260505053115 15 0.0 3.2 0.00 0.00 0.00 77 1019.0
20260505052520 15 0.0 1.6 0.00 0.00 0.00 77 1019.1
20260505052013 15 0.0 1.6 0.00 0.00 0.00 77 1019.0
20260505051517 15 0.0 1.6 0.00 0.00 0.00 76 1019.1
20260505051012 15 0.0 3.2 0.00 0.00 0.00 76 1019.2
20260505050516 15 0.0 3.2 0.00 0.00 0.00 76 1019.2
20260505041501 15 0.0 3.2 0.00 0.00 0.00 71 1019.4
20260505041100 15 0.0 3.2 0.00 0.00 0.00 71 1019.4
20260505040603 15 0.0 1.6 0.00 0.00 0.00 71 1019.4
20260505035602 16 0.0 1.6 0.00 0.00 0.00 70 1019.3
20260505035056 16 0.0 1.6 0.00 0.00 0.00 70 1019.4
20260505034556 16 0.0 1.6 0.00 0.00 0.00 70 1019.5
20260505034056 16 0.0 0.0 0.00 0.00 0.00 69 1019.5
20260505033556 16 0.0 1.6 0.00 0.00 0.00 69 1019.5
20260505033056 16 0.0 1.6 0.00 0.00 0.00 69 1019.4
20260505032554 16 0.0 1.6 0.00 0.00 0.00 68 1019.5
20260505032057 16 0.0 3.2 0.00 0.00 0.00 68 1019.5
20260505031556 16 0.0 1.6 0.00 0.00 0.00 68 1019.5
20260505031053 16 0.0 1.6 0.00 0.00 0.00 67 1019.4
20260505030553 16 0.0 3.2 0.00 0.00 0.00 66 1019.3
20260505030052 16 0.0 3.2 0.00 0.00 0.00 65 1019.3
20260505025552 16 0.0 1.6 0.00 0.00 0.00 66 1019.3
20260505025050 16 0.0 1.6 0.00 0.00 0.00 67 1019.3
20260505024550 16 0.0 1.6 0.00 0.00 0.00 64 1019.1
20260505024050 16 0.0 0.0 0.00 0.00 0.00 65 1019.1
20260505023549 16 0.0 0.0 0.00 0.00 0.00 67 1019.0
20260505023052 16 0.0 0.0 0.00 0.00 0.00 65 1018.9
20260505022548 16 0.0 0.0 0.00 0.00 0.00 67 1018.8
20260505022048 17 0.0 0.0 0.00 0.00 0.00 66 1018.9
20260505021547 17 0.0 0.0 0.00 0.00 0.00 62 1018.7
20260505021048 17 0.0 0.0 0.00 0.00 0.00 63 1018.7
20260505020546 17 0.0 0.0 0.00 0.00 0.00 61 1018.6
20260505020045 17 0.0 0.0 0.00 0.00 0.00 61 1018.6
20260505015545 17 0.0 0.0 0.00 0.00 0.00 62 1018.7
20260505015044 18 0.0 0.0 0.00 0.00 0.00 59 1018.6
20260505014601 18 0.0 0.0 0.00 0.00 0.00 56 1018.5
20260505014043 18 0.0 1.6 0.00 0.00 0.00 55 1018.4
20260505013642 19 0.0 1.6 0.00 0.00 0.00 55 1018.4
20260505013042 20 0.0 0.0 0.00 0.00 0.00 50 1018.4
20260505012540 20 0.0 0.0 0.00 0.00 0.00 50 1018.3
20260505012040 20 0.0 1.6 0.00 0.00 0.00 49 1018.3
20260505011539 20 0.0 1.6 0.00 0.00 0.00 49 1018.3
20260505011038 20 0.0 1.6 0.00 0.00 0.00 51 1018.3
20260505010538 20 0.0 1.6 0.00 0.00 0.00 48 1018.2
20260505010038 21 0.0 1.6 0.00 0.00 0.00 49 1018.1
20260505005538 21 0.0 3.2 0.00 0.00 0.00 47 1018.1
20260505005039 21 0.0 3.2 0.00 0.00 0.00 47 1018.1
20260505004542 21 0.0 3.2 0.00 0.00 0.00 47 1018.0
20260505004035 21 0.0 1.6 0.00 0.00 0.00 46 1018.0
20260505003534 21 0.0 1.6 0.00 0.00 0.00 45 1018.1
20260505003034 22 0.0 1.6 0.00 0.00 0.00 44 1017.9
20260505002537 22 0.0 3.2 0.00 0.00 0.00 43 1017.9
20260505002034 22 0.0 3.2 0.00 0.00 0.00 44 1017.9
20260505001533 23 0.0 1.6 0.00 0.00 0.00 43 1017.9
20260505001032 23 0.0 1.6 0.00 0.00 0.00 42 1017.8
20260505000534 23 0.0 1.6 0.00 0.00 0.00 40 1017.9
20260505000035 24 0.0 1.6 0.00 0.00 0.00 40 1017.9
20260504235531 24 0.0 1.6 0.00 0.00 0.00 40 1017.8
20260504235030 24 0.0 1.6 0.00 0.00 0.00 38 1017.9
20260504234533 24 0.0 1.6 0.00 0.00 0.00 38 1017.8
20260504234027 24 0.0 4.8 0.00 0.00 0.00 38 1017.8
20260504233528 24 0.0 4.8 0.00 0.00 0.00 38 1017.8
20260504233031 25 0.0 4.8 0.00 0.00 0.00 37 1017.7
20260504232527 25 0.0 8.0 0.00 0.00 0.00 37 1017.7
20260504232029 25 3.2 8.0 0.00 0.00 0.00 36 1017.7
20260504231528 25 1.6 9.7 0.00 0.00 0.00 36 1017.7
20260504231026 26 3.2 9.7 0.00 0.00 0.00 35 1017.6
20260504230526 26 1.6 12.9 0.00 0.00 0.00 34 1017.5
20260504230025 26 6.4 12.9 0.00 0.00 0.00 32 1017.6
20260504225527 26 4.8 11.3 0.00 0.00 0.00 33 1017.5
20260504225024 26 4.8 9.7 0.00 0.00 0.00 33 1017.6
20260504224523 26 4.8 11.3 0.00 0.00 0.00 32 1017.5
20260504224023 26 3.2 11.3 0.00 0.00 0.00 32 1017.6
20260504223522 27 3.2 11.3 0.00 0.00 0.00 31 1017.6
20260504223022 27 4.8 14.5 0.00 0.00 0.00 30 1017.6
20260504222621 27 6.4 14.5 0.00 0.00 0.00 30 1017.5
20260504222019 27 3.2 11.3 0.00 0.00 0.00 32 1017.6
20260504221521 27 4.8 12.9 0.00 0.00 0.00 31 1017.6
20260504221018 27 4.8 12.9 0.00 0.00 0.00 31 1017.6
20260504220517 27 4.8 17.7 0.00 0.00 0.00 30 1017.6
20260504220017 27 8.0 17.7 0.00 0.00 0.00 31 1017.5
20260504215515 27 4.8 14.5 0.00 0.00 0.00 31 1017.5
20260504215017 27 4.8 14.5 0.00 0.00 0.00 31 1017.5
20260504214515 27 6.4 12.9 0.00 0.00 0.00 32 1017.5
20260504214017 27 4.8 17.7 0.00 0.00 0.00 33 1017.6
20260504213514 27 8.0 17.7 0.00 0.00 0.00 32 1017.6
20260504213034 27 3.2 11.3 0.00 0.00 0.00 31 1017.6
20260504212516 27 0.0 8.0 0.00 0.00 0.00 31 1017.6
20260504212012 27 1.6 12.9 0.00 0.00 0.00 30 1017.7
20260504211516 28 1.6 14.5 0.00 0.00 0.00 29 1017.7
20260504211012 28 4.8 12.9 0.00 0.00 0.00 29 1017.7
20260504210512 28 1.6 9.7 0.00 0.00 0.00 29 1017.8
20260504210008 28 0.0 9.7 0.00 0.00 0.00 29 1017.8
20260504205507 28 0.0 14.5 0.00 0.00 0.00 28 1017.9
20260504205006 28 3.2 14.5 0.00 0.00 0.00 29 1017.9
20260504204504 28 4.8 19.3 0.00 0.00 0.00 30 1018.0
20260504204002 28 8.0 19.3 0.00 0.00 0.00 30 1018.1
20260504203506 28 3.2 12.9 0.00 0.00 0.00 29 1018.2
20260504203003 28 4.8 16.1 0.00 0.00 0.00 29 1018.2
20260504202501 28 6.4 16.1 0.00 0.00 0.00 30 1018.2
20260504202100 28 3.2 12.9 0.00 0.00 0.00 29 1018.1
20260504201559 28 3.2 12.9 0.00 0.00 0.00 30 1018.3
20260504201101 28 6.4 11.3 0.00 0.00 0.00 30 1018.4
20260504200557 28 3.2 11.3 0.00 0.00 0.00 29 1018.4
20260504200057 27 3.2 9.7 0.00 0.00 0.00 29 1018.4
20260504195601 28 3.2 12.9 0.00 0.00 0.00 28 1018.6
20260504195059 28 3.2 12.9 0.00 0.00 0.00 29 1018.6
20260504194602 27 1.6 9.7 0.00 0.00 0.00 30 1018.6
20260504194051 26 1.6 9.7 0.00 0.00 0.00 34 1018.7
20260504193552 26 4.8 16.1 0.00 0.00 0.00 33 1018.8
20260504193058 26 1.6 16.1 0.00 0.00 0.00 33 1018.9
20260504192548 27 1.6 11.3 0.00 0.00 0.00 33 1018.9
20260504192047 26 4.8 14.5 0.00 0.00 0.00 33 1019.0
20260504191546 26 8.0 12.9 0.00 0.00 0.00 33 1019.0
20260504191045 26 1.6 8.0 0.00 0.00 0.00 32 1019.1
20260504190547 26 3.2 14.5 0.00 0.00 0.00 32 1019.2
20260504190043 27 4.8 14.5 0.00 0.00 0.00 31 1019.3
20260504185542 27 1.6 14.5 0.00 0.00 0.00 30 1019.3
20260504185040 26 3.2 14.5 0.00 0.00 0.00 32 1019.4
20260504184540 26 4.8 9.7 0.00 0.00 0.00 30 1019.6
20260504184039 27 0.0 6.4 0.00 0.00 0.00 32 1019.6
20260504183542 26 1.6 9.7 0.00 0.00 0.00 32 1019.7
20260504183037 27 0.0 9.7 0.00 0.00 0.00 29 1019.7
20260504182539 27 3.2 9.7 0.00 0.00 0.00 28 1019.8
20260504182034 27 0.0 9.7 0.00 0.00 0.00 28 1019.8
20260504181533 26 4.8 9.7 0.00 0.00 0.00 31 1019.8
20260504181032 26 0.0 16.1 0.00 0.00 0.00 32 1019.8
20260504180531 26 6.4 16.1 0.00 0.00 0.00 32 1019.7
20260504180028 26 4.8 14.5 0.00 0.00 0.00 33 1019.8
20260504175528 25 0.0 9.7 0.00 0.00 0.00 33 1019.8
20260504175027 25 4.8 9.7 0.00 0.00 0.00 34 1020.0
20260504174526 26 4.8 12.9 0.00 0.00 0.00 34 1020.0
20260504174025 25 6.4 12.9 0.00 0.00 0.00 36 1020.0
20260504173527 25 1.6 11.3 0.00 0.00 0.00 36 1020.0
20260504173034 25 4.8 9.7 0.00 0.00 0.00 36 1020.0
20260504172523 25 3.2 6.4 0.00 0.00 0.00 35 1020.1
20260504172022 25 1.6 12.9 0.00 0.00 0.00 34 1020.1
20260504171524 25 6.4 12.9 0.00 0.00 0.00 33 1020.1
20260504171024 25 3.2 12.9 0.00 0.00 0.00 36 1020.3
20260504170520 24 4.8 12.9 0.00 0.00 0.00 36 1020.3
20260504151053 22 0.0 3.2 0.00 0.00 0.00 42 1021.6
20260504150553 22 0.0 6.4 0.00 0.00 0.00 44 1021.7
20260504141038 20 1.6 4.8 0.00 0.00 0.00 52 1021.9
20260504140536 20 0.0 3.2 0.00 0.00 0.00 55 1021.8
20260504130516 15 0.0 3.2 0.00 0.00 0.00 71 1021.9